Home > Weather > Laatzen > Past weeks

Flag for Germany Past Weather in Laatzen, Lower Saxony, Germany — Yesterday and Last 2 Weeks

Now
70 °F

Clear.


Feels Like: 70 °F
Forecast: 64 / 90 °F
Wind: 6 mph from Southeast

Location: Hannover

Current Time: Aug 25, 2016 at 3:08:31 AM

Latest Report: Aug 25, 2016 at 2:20 AM


Visibility: 10 mi

Pressure: 30.12 "Hg

Humidity: 64%

Dew Point: 57 °F

Location of LaatzenLocation

Past Weather in Laatzen — Graph

°F

Laatzen Temperature Yesterday

Maximum temperature yesterday: 88 °F (at 3:20 PM)
Minimum temperature yesterday: 61 °F (at 2:50 AM)
Average temperature yesterday: 74 °F

High & Low Weather Summary for the Past Weeks

 TemperatureHumidityPressure
High88 °F (Aug 24, 3:20 PM)100% (Aug 12, 1:50 AM)30.33 "Hg (Aug 12, 1:50 AM)
Low45 °F (Aug 11, 6:20 AM)27% (Aug 18, 3:50 PM)29.80 "Hg (Aug 18, 3:20 PM)
Average63 °F75%30.09 "Hg
* Reported Aug 10 2:20 AM — Aug 25 2:20 AM, Laatzen, Weather by CustomWeather, © 2016

Note: Actual official high and low records may vary slightly from our data, if they occured in-between our weather recording intervals... More about our weather records

Advertising

Laatzen Weather History for the Previous 24 Hours

Scroll right to see more
 ConditionsComfort  
Time TempWeatherWind HumidityBarometerVisibility
2:20 AM
Thu, Aug 25
70 °FClear.6 mph64%30.12 "Hg10 mi
1:20 AM70 °FClear.6 mph64%30.15 "Hg10 mi
12:50 AM68 °FClear.6 mph69%30.15 "Hg10 mi
12:20 AM73 °FPassing clouds.5 mph57%30.15 "HgN/A
11:50 PM
Wed, Aug 24
73 °FMild.7 mph61%30.15 "HgN/A
11:20 PM75 °FClear.8 mph57%30.15 "Hg10 mi
10:50 PM77 °FClear.9 mph54%30.15 "Hg10 mi
10:20 PM77 °FClear.8 mph54%30.15 "Hg10 mi
9:50 PM79 °FClear.7 mph51%30.18 "Hg10 mi
9:20 PM79 °FSunny.8 mph51%30.15 "Hg10 mi
8:50 PM77 °FSunny.8 mph57%30.15 "Hg10 mi
8:20 PM79 °FSunny.8 mph58%30.15 "Hg10 mi
7:50 PM81 °FSunny.7 mph58%30.15 "Hg10 mi
7:20 PM86 °FSunny.8 mph43%30.15 "Hg10 mi
6:50 PM88 °FSunny.8 mph40%30.15 "Hg10 mi
6:20 PM88 °FPassing clouds.6 mph40%30.15 "HgN/A
5:50 PM88 °FPassing clouds.8 mph38%30.15 "HgN/A
5:20 PM88 °FPassing clouds.9 mph38%30.18 "HgN/A
4:50 PM88 °FPassing clouds.8 mph35%30.18 "HgN/A
4:20 PM88 °FPassing clouds.7 mph35%30.18 "HgN/A
3:50 PM86 °FPassing clouds.8 mph38%30.18 "HgN/A
3:20 PM88 °FPassing clouds.8 mph38%30.18 "HgN/A
2:50 PM86 °FPassing clouds.10 mph40%30.18 "HgN/A
2:20 PM86 °FPassing clouds.8 mph40%30.21 "HgN/A
1:50 PM86 °FPassing clouds.10 mph40%30.21 "HgN/A
1:20 PM84 °FSunny.7 mph43%30.21 "Hg10 mi
12:50 PM82 °FPassing clouds.8 mph48%30.24 "HgN/A
12:20 PM82 °FPassing clouds.8 mph48%30.24 "HgN/A
11:50 AM81 °FPassing clouds.12 mph51%30.24 "HgN/A
11:20 AM79 °FPassing clouds.9 mph54%30.24 "HgN/A
10:50 AM77 °FPassing clouds.9 mph57%30.24 "HgN/A
10:20 AM75 °FPassing clouds.7 mph61%30.27 "HgN/A
9:50 AM73 °FSunny.7 mph69%30.27 "Hg10 mi
9:20 AM70 °FSunny.6 mph78%30.27 "Hg10 mi
8:50 AM68 °FSunny.6 mph83%30.27 "Hg10 mi
8:20 AM66 °FSunny.6 mph83%30.27 "Hg10 mi
7:50 AM64 °FSunny.6 mph88%30.27 "Hg10 mi
7:20 AM61 °FClear.5 mph94%30.27 "Hg5 mi
6:50 AM61 °FFog.6 mph94%30.27 "Hg4 mi
6:20 AM61 °FFog.5 mph94%30.24 "Hg4 mi
5:50 AM61 °FFog.6 mph94%30.27 "Hg4 mi
5:20 AM61 °FFog.5 mph94%30.27 "Hg4 mi
4:50 AM61 °FFog.5 mph94%30.27 "Hg4 mi
4:20 AM61 °FFog.5 mph100%30.27 "Hg3 mi
3:50 AM61 °FFog.5 mph94%30.27 "Hg3 mi
3:20 AM63 °FFog.5 mph94%30.27 "Hg4 mi
Weather by CustomWeather, © 2016

See weather overviewHow to use our weather pages